Location: Hains Lake
(37.8540°N, 99.8578°W)
Time: 00:08:02
(UTC+00:00)

Vanguard 1 - Pass Details

Date: 02 December 2022
Orbit: 650 x 3831 km, 34.2° (Epoch: 05 February)

Event Time Altitude Azimuth Distance (km) Brightness Sun altitude
Exits shadow 12:29:24 - 246° (WSW) 4,081 12.8 -13.2°
Reaches altitude 10° 12:35:26 10° 211° (SSW) 4,192 13.2 -12.1°
Maximum altitude 12:35:57 10° 209° (SSW) 4,250 13.2 -12.0°
Drops below altitude 10° 12:36:29 10° 206° (SSW) 4,316 13.3 -11.9°
Sets 12:47:49 0° 168° (SSE) 6,531 14.8 -9.8°
